sat.trackr.live / text

‹ back to catalog

STARLINK-37023

NORAD 68076 · 2026-042H

PAYLOAD ACTIVE UNKNOWN

§ Identity

Operator
Country
US
Launch date
2026-03-04
Launch site
AFETR
Launch vehicle
Mass (kg)
RCS (m²)

Purposes: comms

External: N2YO · Heavens-Above · Gunter

§ Orbital elements

Epoch: 2026-05-25T02:47:12.640128Z

Period
93.85 min
Inclination
53.1585°
Eccentricity
0.0001495
Mean motion
15.34412976 rev/d
Perigee alt
461.6 km
Apogee alt
463.7 km
Semi-major
6,840.8 km
B*
5.3981e-4
RAAN
183.2245°
Arg perigee
92.5668°
Mean anomaly
267.5505°
Rev number
1,401

§ Raw data

STARLINK-370231 68076U 26042H   26145.11611852  .00017913  00000+0  53981-3 0  99932 68076  53.1585 183.2245 0001495  92.5668 267.5505 15.34412976 14014

JSON: /api/v1/satellites/68076 · /tle

For live sub-satellite position, see the globe view (requires WebGL).

§ Visibility from observer

Set your observer location to see the next 7 days of passes ≥ 10°. The values pass through the URL so the page stays shareable.

No JS? Fill the form by hand. The geolocation button needs JavaScript.